Location: Calberlah
(52.4230°N, 10.6240°E)
Time: 19:19:56
(UTC+00:00)

PSLV R/B - Pass Details

Date: 19 May 2025
Orbit: 400 x 431 km, 97.7° (Epoch: 20 June)

Event Time Altitude Azimuth Distance (km) Brightness Sun altitude
Exits shadow 20:53:42 13° 185° (S) 1,329 5.3 -11.4°
Maximum altitude 20:56:24 49° 259° (W) 558 4.0 -11.7°
Drops below altitude 10° 20:59:36 10° 336° (NNW) 1,530 7.6 -11.9°
Sets 21:01:40 0° 342° (NNW) 2,410 8.8 -12.1°
